Weather History for Gadsden, AL

Change the Weather History Date:

Monday, February 18, 2013

  Actual Average Record
Temperature  
Mean Temperature 42 °F -  
Max Temperature 60 °F 55 °F 76 °F (1938)
Min Temperature 24 °F 35 °F 17 °F (1936)
Degree Days  
Heating Degree Days 23    
Moisture  
Dew Point 26 °F    
Average Humidity 53    
Maximum Humidity 93    
Minimum Humidity 27    
Precipitation  
Precipitation 0.00 in - - ()
Sea Level Pressure  
Sea Level Pressure 30.19 in    
Wind  
Wind Speed 4 mph (South)    
Max Wind Speed 15 mph    
Max Gust Speed 23 mph    
Visibility 10 miles    
Events      
Averages and records for this station are not official NWS values.
T = Trace of Precipitation, MM = Missing Value Source: NWS Daily Summary

Daily Weather History Graph

Daily Weather History Graph

Search for Another Location

Airport:

Trip Planner

Search our weather history database for the weather conditions in past years. The results will help you decide how hot, cold, wet, or windy it might be!

Date:

Astronomy

Feb. 18, 2013 Rise Set
Actual Time 6:25 AM CST 5:31 PM CST
Civil Twilight 6:00 AM CST 5:56 PM CST
Nautical Twilight 5:30 AM CST 6:26 PM CST
Astronomical Twilight 5:01 AM CST 6:55 PM CST
Moon 11:24 AM CST (2/18) 12:57 AM CST (2/18)
Length of Visible Light 11h 56m
Length of Day
11h 05m
First Quarter, 58% of the Moon is Illuminated
Feb 18
First Quarter
Feb 25
Full
Mar 4
Last Quarter
Mar 11
New
Mar 19
First Quarter

Hourly Weather History & Observations

Time (CST) Temp. Windchill Dew Point Humidity Pressure Visibility Wind Dir Wind Speed Gust Speed Precip Events Conditions
12:15 AM 26.6 °F - 21.2 °F 80% 30.26 in 10.0 mi Calm Calm - N/A   Clear
12:35 AM 26.6 °F - 21.2 °F 80% 30.26 in 10.0 mi Calm Calm - N/A   Clear
12:55 AM 28.4 °F - 21.2 °F 74% 30.26 in 10.0 mi Calm Calm - N/A   Clear
1:15 AM 26.6 °F - 21.2 °F 80% 30.26 in 10.0 mi Calm Calm - N/A   Clear
1:35 AM 26.6 °F - 21.2 °F 80% 30.26 in 10.0 mi Calm Calm - N/A   Clear
1:55 AM 26.6 °F - 21.2 °F 80% 30.26 in 10.0 mi Calm Calm - N/A   Clear
2:15 AM 26.6 °F - 21.2 °F 80% 30.26 in 10.0 mi Calm Calm - N/A   Clear
2:35 AM 26.6 °F - 21.2 °F 80% 30.26 in 10.0 mi Calm Calm - N/A   Clear
2:55 AM 26.6 °F - 21.2 °F 80% 30.26 in 10.0 mi Calm Calm - N/A   Clear
3:15 AM 24.8 °F - 21.2 °F 86% 30.26 in 10.0 mi Calm Calm - N/A   Clear
3:55 AM 26.6 °F - 21.2 °F 80% 30.26 in 10.0 mi Calm Calm - N/A   Clear
4:15 AM 24.8 °F - 21.2 °F 86% 30.27 in 10.0 mi Calm Calm - N/A   Clear
4:35 AM 24.8 °F - 21.2 °F 86% 30.27 in 10.0 mi Calm Calm - N/A   Clear
4:55 AM 26.6 °F - 23.0 °F 86% 30.28 in 10.0 mi Calm Calm - N/A   Clear
5:15 AM 24.8 °F - 21.2 °F 86% 30.28 in 10.0 mi Calm Calm - N/A   Clear
5:35 AM 24.8 °F - 21.2 °F 86% 30.28 in 10.0 mi Calm Calm - N/A   Clear
5:55 AM 24.8 °F - 21.2 °F 86% 30.28 in 10.0 mi Calm Calm - N/A   Clear
6:15 AM 24.8 °F - 21.2 °F 86% 30.28 in 10.0 mi Calm Calm - N/A   Clear
6:35 AM 24.8 °F - 21.2 °F 86% 30.29 in 10.0 mi Calm Calm - N/A   Clear
6:55 AM 24.8 °F - 21.2 °F 86% 30.29 in 10.0 mi Calm Calm - N/A   Clear
7:15 AM 26.6 °F - 24.8 °F 93% 30.30 in 10.0 mi Calm Calm - N/A   Clear
7:35 AM 28.4 °F - 26.6 °F 93% 30.31 in 10.0 mi Calm Calm - N/A   Clear
7:55 AM 32.0 °F - 28.4 °F 87% 30.31 in 10.0 mi Calm Calm - N/A   Clear
8:15 AM 35.6 °F - 28.4 °F 75% 30.32 in 10.0 mi Calm Calm - N/A   Clear
8:35 AM 37.4 °F - 28.4 °F 70% 30.32 in 10.0 mi Calm Calm - N/A   Clear
8:55 AM 39.2 °F - 26.6 °F 61% 30.32 in 10.0 mi Calm Calm - N/A   Clear
9:15 AM 42.8 °F - 26.6 °F 53% 30.32 in 10.0 mi Calm Calm - N/A   Clear
9:35 AM 44.6 °F 41.4 °F 26.6 °F 49% 30.32 in 10.0 mi South 5.8 mph - N/A   Clear
9:55 AM 46.4 °F 43.5 °F 28.4 °F 50% 30.31 in 10.0 mi South 5.8 mph - N/A   Clear
10:15 AM 48.2 °F - 28.4 °F 46% 30.31 in 10.0 mi South 8.1 mph - N/A   Clear
10:35 AM 51.8 °F - 30.2 °F 44% 30.31 in 10.0 mi SSW 9.2 mph - N/A   Clear
10:55 AM 51.8 °F - 30.2 °F 44% 30.30 in 10.0 mi South 10.4 mph 16.1 mph N/A   Clear
11:15 AM 53.6 °F - 32.0 °F 44% 30.28 in 10.0 mi South 9.2 mph - N/A   Clear
11:35 AM 55.4 °F - 30.2 °F 38% 30.26 in 10.0 mi South 11.5 mph - N/A   Clear
11:55 AM 55.4 °F - 30.2 °F 38% 30.25 in 10.0 mi SSW 8.1 mph - N/A   Clear
12:15 PM 57.2 °F - 30.2 °F 36% 30.24 in 10.0 mi SSW 12.7 mph 19.6 mph N/A   Clear
12:35 PM 57.2 °F - 28.4 °F 33% 30.22 in 10.0 mi SW 10.4 mph 17.3 mph N/A   Clear
12:55 PM 57.2 °F - 28.4 °F 33% 30.20 in 10.0 mi South 13.8 mph 19.6 mph N/A   Clear
1:15 PM 57.2 °F - 28.4 °F 33% 30.19 in 10.0 mi SSW 9.2 mph - N/A   Clear
1:35 PM 60.8 °F - 30.2 °F 31% 30.18 in 10.0 mi SSE 10.4 mph 17.3 mph N/A   Clear
1:55 PM 60.8 °F - 30.2 °F 31% 30.17 in 10.0 mi SSE 15.0 mph 21.9 mph N/A   Clear
2:15 PM 60.8 °F - 28.4 °F 29% 30.15 in 10.0 mi South 11.5 mph 19.6 mph N/A   Clear
2:35 PM 60.8 °F - 28.4 °F 29% 30.14 in 10.0 mi SSE 12.7 mph 20.7 mph N/A   Clear
2:55 PM 60.8 °F - 28.4 °F 29% 30.13 in 10.0 mi SSW 12.7 mph 23.0 mph N/A   Clear
3:15 PM 60.8 °F - 28.4 °F 29% 30.13 in 10.0 mi SSE 10.4 mph 18.4 mph N/A   Clear
3:35 PM 60.8 °F - 28.4 °F 29% 30.13 in 10.0 mi South 15.0 mph 21.9 mph N/A   Clear
3:55 PM 60.8 °F - 26.6 °F 27% 30.12 in 10.0 mi SSW 11.5 mph 23.0 mph N/A   Clear
4:15 PM 59.0 °F - 26.6 °F 29% 30.11 in 10.0 mi SSE 12.7 mph 17.3 mph N/A   Clear
4:35 PM 59.0 °F - 26.6 °F 29% 30.11 in 10.0 mi South 6.9 mph - N/A   Clear
4:55 PM 57.2 °F - 26.6 °F 31% 30.10 in 10.0 mi South 12.7 mph 20.7 mph N/A   Clear
5:35 PM 57.2 °F - 26.6 °F 31% 30.08 in 10.0 mi South 12.7 mph 21.9 mph N/A   Mostly Cloudy
5:55 PM 57.2 °F - 26.6 °F 31% 30.08 in 10.0 mi South 8.1 mph 16.1 mph N/A   Overcast
6:15 PM 55.4 °F - 26.6 °F 33% 30.08 in 10.0 mi SSE 8.1 mph 17.3 mph N/A   Overcast
6:35 PM 55.4 °F - 26.6 °F 33% 30.08 in 10.0 mi South 8.1 mph - N/A   Scattered Clouds
6:55 PM 53.6 °F - 26.6 °F 35% 30.08 in 10.0 mi South 8.1 mph - N/A   Partly Cloudy
7:15 PM 55.4 °F - 26.6 °F 33% 30.08 in 10.0 mi South 8.1 mph - N/A   Mostly Cloudy
7:35 PM 55.4 °F - 26.6 °F 33% 30.07 in 10.0 mi South 9.2 mph - N/A   Overcast
7:55 PM 55.4 °F - 26.6 °F 33% 30.08 in 10.0 mi South 12.7 mph 19.6 mph N/A   Overcast
8:15 PM 55.4 °F - 26.6 °F 33% 30.08 in 10.0 mi South 9.2 mph - N/A   Overcast
8:35 PM 53.6 °F - 28.4 °F 38% 30.07 in 10.0 mi South 9.2 mph 23.0 mph N/A   Overcast
8:55 PM 53.6 °F - 28.4 °F 38% 30.07 in 10.0 mi South 11.5 mph 19.6 mph N/A   Overcast
9:15 PM 53.6 °F - 28.4 °F 38% 30.06 in 10.0 mi South 8.1 mph 16.1 mph N/A   Scattered Clouds
9:35 PM 53.6 °F - 28.4 °F 38% 30.05 in 10.0 mi South 10.4 mph 21.9 mph N/A   Mostly Cloudy
9:55 PM 53.6 °F - 26.6 °F 35% 30.04 in 10.0 mi South 8.1 mph 20.7 mph N/A   Mostly Cloudy
10:15 PM 53.6 °F - 26.6 °F 35% 30.04 in 10.0 mi South 8.1 mph 18.4 mph N/A   Mostly Cloudy
10:35 PM 53.6 °F - 26.6 °F 35% 30.03 in 10.0 mi South 8.1 mph - N/A   Overcast
10:55 PM 53.6 °F - 26.6 °F 35% 30.01 in 10.0 mi SSW 10.4 mph 17.3 mph N/A   Overcast
11:15 PM 53.6 °F - 26.6 °F 35% 30.00 in 10.0 mi SSW 11.5 mph 23.0 mph N/A   Overcast
11:35 PM 51.8 °F - 26.6 °F 38% 29.99 in 10.0 mi South 9.2 mph 20.7 mph N/A   Overcast
11:55 PM 51.8 °F - 28.4 °F 41% 29.98 in 10.0 mi South 15.0 mph 20.7 mph N/A   Overcast